Location: Dillon
(41.1766°N, 107.0923°W)
Time: 22:45:01
(UTC+00:00)

SJ-7 - Pass Details

Date: 09 December 2022
Orbit: 549 x 592 km, 97.7° (Epoch: 08 February)

Event Time Altitude Azimuth Distance (km) Brightness Sun altitude
Rises 12:08:24 0° 26° (NNE) 2,733 8.1 -24.4°
Reaches altitude 10° 12:10:51 10° 40° (NE) 1,838 7.3 -23.9°
Maximum altitude 12:14:07 24° 95° (E) 1,172 6.7 -23.3°
Drops below altitude 10° 12:17:22 10° 151° (SSE) 1,842 7.5 -22.7°
Sets 12:19:49 0° 165° (SSE) 2,740 8.2 -22.3°
